Tracking 29892 objects as of 21-Nov-2024
HD Live streaming from Space Station
objects crossing your sky now

COSMOS 2037

Track COSMOS 2037 now!
10-day predictions
COSMOS 2037 is classified as:


NORAD ID: 20196
Int'l Code: 1989-068A
Perigee: 1,491.2 km
Apogee: 1,531.8 km
Inclination: 73.6 °
Period: 116.1 minutes
Semi major axis: 7882 km
RCS: 9.7636 m2 (large)
Launch date: August 28, 1989
Source: Commonwealth of Independent States (former USSR) (CIS)
Launch site: PLESETSK MISSILE AND SPACE COMPLEX (PKMTR)
Your satellite tracking list
Your tracking list is empty




NASA's NSSDC Master Catalog

Two Line Element Set (TLE):
1 20196U 89068A   24325.59696119 -.00000015  00000-0  16589-4 0  9991
2 20196  73.5678 351.5394 0025715 292.9771 245.6259 12.40528890594586
Source of the keplerian elements: AFSPC